Tracking 35331 objects as of 14-Sep-2026
HD Live streaming from Space Station
objects crossing your sky now

STARLINK-3358

Track STARLINK-3358 now!
10-day predictions
STARLINK-3358 is classified as:


NORAD ID: 51109
Int'l Code: 2022-005F
Launch date: January 19, 2022
Source: United States (US)
Launch site: AIR FORCE EASTERN TEST RANGE (AFETR)
Your satellite tracking list
Your tracking list is empty




NASA's NSSDC Master Catalog

Two Line Element Set (TLE):
1 51109U 22005F   26257.44669607  .00001061  00000-0  45953-4 0  9997
2 51109  53.1597 154.0860 0001146  77.7604 282.3525 15.31700319257242
Source of the keplerian elements: AFSPC